{"data":{"norad_id":53085,"intl_designator":"2022-077AU","name":"STARLINK-4324","alt_names":[],"object_type":"PAYLOAD","status":"ACTIVE","operator":null,"country":"US","launch_date":"2022-07-11","launch_site_code":"AFWTR","launch_vehicle":null,"mission":null,"orbit_class":"UNKNOWN","rcs_meters":null,"size_class":null,"mass_kg":null,"dimensions":null,"purposes":["comms"],"wikipedia_slug":null,"has_3d_model":false,"image_url":null,"decayed_at":null,"tle_current":{"epoch":"2026-05-25T01:25:13.550304Z","epoch_age_seconds":63932,"freshness":"FRESH","line1":"1 53085U 22077AU  26145.05918461 -.00002145  00000+0 -14473-3 0  9996","line2":"2 53085  97.4537 326.0647 0001389  72.2931 287.8448 15.05637146212476","mean_motion":15.05637146,"eccentricity":0.0001389,"inclination_deg":97.4537,"raan_deg":326.0647,"arg_perigee_deg":72.2931,"mean_anomaly_deg":287.8448,"bstar":-0.00014473,"rev_number":21247,"period_min":95.640573416087,"perigee_km":548.58832688502,"apogee_km":550.51283849549,"semimajor_km":6927.6875826903,"source":"CELESTRAK","updated_at":"2026-05-25T13:38:17.314980Z"}}}